Regional Weather Roundup
Issued by NWS

Home | Current Version | Previous Version | Text Only | Print | Product List | Glossary Off
Versions: 1 2 3 4 5 6 7 8 9 10 11 12 13 14 15 16 17 18 19 20 21 22 23 24 25 26 27 28 29 30 31 32 33 34 35 36 37 38 39 40 41 42 43 44 45 46 47 48 49 50

000
ASUS45 KSLC 290410
RWRUT

UTAH REGIONAL WEATHER ROUNDUP
NATIONAL WEATHER SERVICE SALT LAKE CITY UT
1000 PM MDT MON JUL 28 2014

UTZ001>011-023>025-290500-

NORTHERN UTAH

CITY           SKY/WX    TMP DP  RH WIND       PRES   REMARKS
HILL AFB       CLOUDY    69  56  63 SE10      30.27R
LOGAN          CLOUDY    68  58  70 NW9       30.26R
OGDEN          CLOUDY    72  55  55 S8        30.24R
PROVO AIRPORT  MOCLDY    70  63  78 S6        30.25R
SALT LAKE CITY CLOUDY    69  64  84 W5        30.21R
VERNAL         CLOUDY    68  58  70 W8        30.32R
WENDOVER       CLOUDY    79  54  41 NW6       30.20R
HEBER CITY     CLOUDY    63  59  88 CALM      30.32R
WEST JORDAN    CLOUDY    72  66  83 CALM      30.24S

$$

UTZ012>022-026-027-290500-

SOUTHERN UTAH

CITY           SKY/WX    TMP DP  RH WIND       PRES   REMARKS
BRYCE CANYON   CLOUDY    60  54  80 NW7       30.45R
CEDAR CITY     CLOUDY    69  56  62 SE3       30.28R
MILFORD        CLOUDY    77  52  41 CALM      30.22R
MOAB/CYNLANDS  LGT RAIN  66  64  93 W30G38    30.23R
PRICE          MOCLDY    67  58  72 NE5       30.30R
ST GEORGE      CLOUDY    82  55  39 SE6       30.12R
KANAB            N/A     66  61  82 CALM      30.30R

$$

REGIONAL REPORTS     COLORADO/ARIZONA

CITY           SKY/WX    TMP DP  RH WIND       PRES   REMARKS
CRAIG, CO      CLOUDY    61  50  67 W6        30.34R
GRAND JUNCTION CLOUDY    73  54  51 NE18G25   30.24R
RIFLE          CLOUDY    65  59  81 SE5       30.32R
MONTROSE       CLOUDY    69  55  60 S10       30.37R
CORTEZ         LGT RAIN  63  62  97 NE10      30.35S
PAGE, AZ       CLOUDY    81  53  37 SE7       30.20R
GRAND CANYON   PTCLDY    61  54  77 CALM      30.39R
KINGMAN        CLEAR     74  60  61 SE6       30.16R
FLAGSTAFF      PTCLDY    61  53  75 CALM      30.42R

$$

REGIONAL REPORTS    NEVADA/IDAHO/WYOMING

CITY           SKY/WX    TMP DP  RH WIND       PRES   REMARKS
LAS VEGAS, NV  MOCLDY    85  62  46 S8        30.01R
ELY            CLOUDY    64  54  69 W7        30.35R
ELKO           CLOUDY    70  52  52 S7        30.26F
POCATELLO, ID  LGT RAIN  70  54  56 E7        30.25R
BURLEY         CLOUDY    75  53  46 SE15G24   30.17R
EVANSTON, WY   LGT RAIN  58  54  86 SW12      30.39R
ROCK SPRINGS   CLOUDY    72  44  36 W8        30.33R

$$


USA.gov is the U.S. government's official web portal to all federal, state and local government web resources and services.